Location: *
(50.3194°N, 7.1067°E)
Time: 03:07:10
(UTC+00:00)

Cosmos 1626 Rocket - Pass Details

Date: 22 September 2019
Orbit: 602 x 632 km, 82.5° (Epoch: 19 October)

Event Time Altitude Azimuth Distance (km) Brightness Sun altitude
Rises 19:59:25 0° 345° (NNW) 2,870 7.7 -23.4°
Reaches altitude 10° 20:01:41 10° 340° (NNW) 1,961 6.8 -23.7°
Maximum altitude 20:05:51 48° 266° (W) 792 4.3 -24.3°
Enters shadow 20:07:10 35° 218° (SW) 975 4.5 -24.5°
